AF5AA Weather Reports


time (UTC)temp
C
wind
direction
speed
KPH
gust
KPH
rain 1hr
cm
rain 24hr
cm
rain mn
cm
humidity
%
barometer
mb
20260509200923 29 79 0.0 0.0 0.00 0.00 0.00 71 1008.4
20260509200422 29 103 0.0 0.0 0.00 0.00 0.00 68 1008.6
20260509195919 29 123 1.6 1.6 0.00 0.00 0.00 70 1008.7
20260509195416 28 111 0.0 0.0 0.00 0.00 0.00 71 1008.9
20260509194914 28 58 0.0 1.6 0.00 0.00 0.00 71 1008.6
20260509194411 28 99 0.0 0.0 0.00 0.00 0.00 75 1008.8
20260509193908 27 103 0.0 0.0 0.00 0.00 0.00 78 1008.9
20260509193407 27 108 0.0 0.0 0.00 0.00 0.00 74 1008.7
20260509192904 28 94 0.0 0.0 0.00 0.00 0.00 73 1008.9
20260509192400 28 96 0.0 0.0 0.00 0.00 0.00 72 1008.9
20260509191855 28 118 1.6 3.2 0.00 0.00 0.00 72 1009.1
20260509191351 28 121 0.0 0.0 0.00 0.00 0.00 72 1009.2
20260509190848 28 116 0.0 0.0 0.00 0.00 0.00 70 1009.1
20260509190344 28 109 0.0 0.0 0.00 0.00 0.00 71 1009.1
20260509185842 28 74 0.0 0.0 0.00 0.00 0.00 73 1009.1
20260509185338 27 100 0.0 0.0 0.00 0.00 0.00 76 1009.0
20260509184836 27 106 0.0 0.0 0.00 0.00 0.00 76 1009.4
20260509184333 27 99 0.0 0.0 0.00 0.00 0.00 80 1009.3
20260509183829 27 107 0.0 0.0 0.00 0.00 0.00 76 1009.6
20260509183324 27 98 0.0 0.0 0.00 0.00 0.00 73 1009.3
20260509182821 27 340 1.6 1.6 0.00 0.00 0.00 75 1009.4
20260509182318 27 54 1.6 1.6 0.00 0.00 0.00 76 1009.6
20260509181815 27 108 0.0 0.0 0.00 0.00 0.00 76 1009.7
20260509181312 27 107 0.0 0.0 0.00 0.00 0.00 78 1009.6
20260509180810 27 127 1.6 1.6 0.00 0.00 0.00 77 1009.7
20260509180306 27 130 1.6 1.6 0.00 0.00 0.00 79 1009.6
20260509175802 27 118 0.0 0.0 0.00 0.00 0.00 76 1009.7
20260509175259 27 154 1.6 1.6 0.00 0.00 0.00 78 1009.9
20260509174755 26 112 0.0 0.0 0.00 0.00 0.00 81 1010.0
20260509174250 26 109 0.0 0.0 0.00 0.00 0.00 84 1009.9
20260509173747 26 134 0.0 1.6 0.00 0.00 0.00 83 1009.8
20260509173242 26 65 0.0 1.6 0.00 0.00 0.00 85 1009.8
20260509172738 26 110 0.0 1.6 0.00 0.00 0.00 85 1010.1
20260509172235 25 98 0.0 0.0 0.00 0.00 0.00 86 1010.1
20260509171731 25 103 0.0 0.0 0.00 0.00 0.00 88 1010.2
20260509171227 25 117 0.0 0.0 0.00 0.00 0.00 87 1010.1
20260509170724 25 117 0.0 0.0 0.00 0.00 0.00 88 1010.3
20260509170220 25 114 0.0 0.0 0.00 0.00 0.00 87 1010.2
20260509165718 25 77 0.0 0.0 0.00 0.00 0.00 89 1010.2
20260509165214 25 117 0.0 0.0 0.00 0.00 0.00 88 1010.3
20260509164710 25 116 0.0 0.0 0.00 0.00 0.00 88 1010.2
20260509164206 25 118 0.0 0.0 0.00 0.00 0.00 88 1010.2
20260509163703 25 98 0.0 0.0 0.00 0.00 0.00 88 1010.3
20260509163200 25 97 1.6 1.6 0.00 0.00 0.00 89 1010.3
20260509162657 25 131 1.6 1.6 0.00 0.00 0.00 89 1010.3
20260509162153 25 117 0.0 0.0 0.00 0.00 0.00 91 1010.1
20260509161649 24 68 0.0 1.6 0.00 0.00 0.00 93 1010.3
20260509161144 24 115 0.0 0.0 0.00 0.00 0.00 92 1010.2
20260509160640 24 120 0.0 0.0 0.00 0.00 0.00 92 1010.1
20260509160135 24 146 0.0 1.6 0.00 0.00 0.00 95 1010.0
20260509155632 23 107 0.0 0.0 0.00 0.00 0.00 96 1009.9
20260509155129 23 73 0.0 0.0 0.00 0.00 0.00 99 1010.1
20260509154624 22 88 0.0 0.0 0.00 0.00 0.00 99 1010.2
20260509154121 22 104 0.0 0.0 0.00 0.00 0.00 99 1010.2
20260509153619 22 112 0.0 0.0 0.00 0.00 0.00 99 1010.3
20260509153115 22 114 0.0 0.0 0.00 0.00 0.00 99 1010.0
20260509152611 22 114 0.0 0.0 0.00 0.00 0.00 99 1010.3
20260509152109 22 118 0.0 0.0 0.00 0.00 0.00 99 1010.3
20260509151605 22 107 0.0 0.0 0.00 0.00 0.00 99 1010.2
20260509151103 22 106 0.0 0.0 0.00 0.00 0.00 99 1010.4
20260509150600 22 102 0.0 0.0 0.00 0.00 0.00 99 1010.3
20260509150058 22 102 0.0 0.0 0.00 0.00 0.00 99 1010.2
20260509145554 22 102 0.0 0.0 0.00 0.00 0.00 99 1010.2
20260509145049 21 104 0.0 0.0 0.00 0.00 0.00 99 1010.2
20260509144546 21 109 0.0 0.0 0.00 0.00 0.00 99 1010.3
20260509144043 21 109 0.0 0.0 0.00 0.00 0.00 99 1010.2
20260509143540 21 109 0.0 0.0 0.00 0.00 0.00 99 1010.4
20260509143038 21 106 0.0 0.0 0.00 0.00 0.00 99 1010.4
20260509142533 21 105 0.0 0.0 0.00 0.00 0.00 99 1010.4
20260509142029 21 105 0.0 0.0 0.00 0.00 0.00 99 1010.7
20260509141526 21 108 0.0 0.0 0.00 0.00 0.00 99 1010.4
20260509141023 21 108 0.0 0.0 0.00 0.00 0.00 99 1010.3
20260509140519 21 108 0.0 0.0 0.00 0.00 0.00 99 1010.5
20260509140018 21 108 0.0 0.0 0.00 0.00 0.00 99 1010.3
20260509135514 21 112 0.0 0.0 0.00 0.00 0.00 99 1010.2
20260509135012 21 111 0.0 0.0 0.00 0.00 0.00 99 1010.3
20260509134509 21 111 0.0 0.0 0.00 0.00 0.00 99 1010.2
20260509134007 21 111 0.0 0.0 0.00 0.00 0.00 99 1010.3
20260509133503 21 111 0.0 0.0 0.00 0.00 0.00 99 1010.3
20260509133001 21 117 0.0 0.0 0.00 0.00 0.00 99 1010.2
20260509132459 21 113 0.0 0.0 0.00 0.00 0.00 99 1010.1
20260509131956 21 101 0.0 0.0 0.00 0.00 0.00 99 1010.0
20260509131453 21 104 0.0 0.0 0.00 0.00 0.00 99 1010.1
20260509130949 21 100 0.0 0.0 0.00 0.00 0.00 99 1010.2
20260509130445 21 100 0.0 0.0 0.00 0.00 0.00 99 1010.2
20260509125942 21 99 0.0 0.0 0.00 0.00 0.00 99 1010.3
20260509125439 21 99 0.0 0.0 0.00 0.00 0.00 99 1010.1
20260509124935 21 109 0.0 0.0 0.00 0.00 0.00 99 1010.2
20260509124432 21 108 0.0 0.0 0.00 0.00 0.00 99 1010.0
20260509123929 21 114 0.0 0.0 0.00 0.00 0.00 99 1010.2
20260509123426 21 116 0.0 0.0 0.00 0.00 0.00 99 1010.0
20260509122922 21 118 0.0 0.0 0.00 0.00 0.00 99 1009.8
20260509122419 21 115 0.0 0.0 0.00 0.00 0.00 99 1009.7
20260509121916 20 108 0.0 0.0 0.00 0.00 0.00 99 1009.6
20260509121413 20 111 0.0 0.0 0.00 0.00 0.00 99 1009.8
20260509120911 21 113 0.0 0.0 0.00 0.00 0.00 99 1009.8
20260509120408 20 118 0.0 0.0 0.00 0.00 0.00 99 1009.8
20260509115906 21 117 0.0 0.0 0.00 0.00 0.00 99 1009.7
20260509115403 21 101 0.0 0.0 0.00 0.00 0.00 99 1009.6
20260509114901 20 96 0.0 0.0 0.00 0.00 0.00 99 1009.2
20260509114359 20 101 0.0 0.0 0.00 0.00 0.00 99 1009.4
20260509113858 20 105 0.0 0.0 0.00 0.00 0.00 99 1009.5
20260509113356 20 107 0.0 0.0 0.00 0.00 0.00 99 1009.4
20260509112852 20 66 0.0 0.0 0.00 0.00 0.00 99 1009.1
20260509112349 20 108 0.0 0.0 0.00 0.00 0.00 99 1009.1
20260509111846 20 115 0.0 0.0 0.00 0.00 0.00 99 1008.8
20260509111343 20 111 0.0 0.0 0.00 0.00 0.00 99 1008.8
20260509110841 20 140 1.6 1.6 0.00 0.00 0.00 99 1008.8
20260509110337 20 105 1.6 1.6 0.00 0.00 0.00 99 1008.9
20260509105835 20 123 0.0 0.0 0.00 0.00 0.00 99 1008.8
20260509105333 20 135 1.6 1.6 0.00 0.00 0.00 99 1009.1
20260509104829 20 113 0.0 0.0 0.00 0.00 0.00 99 1009.2
20260509104326 20 112 0.0 0.0 0.00 0.00 0.00 99 1009.1
20260509103824 20 114 0.0 0.0 0.00 0.00 0.00 99 1009.0
20260509103321 20 115 0.0 0.0 0.00 0.00 0.00 99 1009.0
20260509102820 20 115 0.0 0.0 0.00 0.00 0.00 99 1009.3
20260509102317 20 114 0.0 0.0 0.00 0.00 0.00 99 1009.0
20260509101812 20 112 0.0 0.0 0.00 0.00 0.00 99 1009.1
20260509101309 20 114 0.0 0.0 0.00 0.00 0.00 99 1009.2
20260509100807 20 112 0.0 0.0 0.00 0.00 0.00 99 1009.2
20260509100303 20 112 0.0 0.0 0.00 0.00 0.00 99 1009.3
20260509095800 20 112 0.0 0.0 0.00 0.00 0.00 99 1009.5
20260509095257 20 112 0.0 0.0 0.00 0.00 0.00 99 1009.3
20260509094754 20 112 0.0 0.0 0.00 0.00 0.00 99 1009.6
20260509094251 20 112 0.0 0.0 0.00 0.00 0.00 99 1009.4
20260509093749 20 110 0.0 0.0 0.00 0.00 0.00 99 1009.4
20260509093246 20 109 0.0 0.0 0.00 0.00 0.00 99 1009.3
20260509092744 20 112 0.0 0.0 0.00 0.00 0.00 99 1009.4
20260509092242 20 114 0.0 0.0 0.00 0.00 0.00 99 1009.3
20260509091740 20 108 0.0 0.0 0.00 0.00 0.00 99 1009.4
20260509091236 20 103 0.0 0.0 0.00 0.00 0.00 99 1009.3
20260509090733 20 114 0.0 0.0 0.00 0.00 0.00 99 1009.3
20260509090231 20 113 0.0 0.0 0.00 0.00 0.00 99 1009.2
20260509085728 20 116 0.0 0.0 0.00 0.00 0.00 99 1009.0
20260509085225 20 92 0.0 0.0 0.00 0.00 0.00 99 1009.3
20260509084722 20 116 0.0 0.0 0.00 0.00 0.00 99 1009.2
20260509084218 20 124 0.0 0.0 0.00 0.00 0.00 99 1009.4
20260509083717 20 107 0.0 0.0 0.00 0.00 0.00 99 1009.6
20260509083213 20 114 0.0 0.0 0.00 0.00 0.00 99 1009.6
20260509082710 20 114 0.0 0.0 0.00 0.00 0.00 99 1009.7
20260509082206 20 115 0.0 0.0 0.00 0.00 0.00 99 1010.0
20260509081703 20 112 0.0 0.0 0.00 0.00 0.00 99 1010.2
20260509081200 20 112 0.0 0.0 0.00 0.00 0.00 99 1009.9
20260509080659 20 112 0.0 0.0 0.00 0.00 0.00 99 1010.4
20260509080156 20 103 0.0 0.0 0.00 0.00 0.00 99 1010.2
20260509075654 20 100 0.0 0.0 0.00 0.00 0.00 99 1010.4
20260509075151 20 98 0.0 0.0 0.00 0.00 0.00 99 1010.3
20260509074648 20 109 0.0 0.0 0.00 0.00 0.00 99 1010.4
20260509074144 20 98 0.0 0.0 0.00 0.00 0.00 99 1010.4
20260509073642 20 95 0.0 0.0 0.00 0.00 0.00 99 1010.0
20260509073137 20 104 0.0 0.0 0.00 0.00 0.00 99 1010.2
20260509072635 20 68 0.0 1.6 0.00 0.00 0.00 99 1010.2
20260509072131 20 104 0.0 0.0 0.00 0.00 0.00 99 1009.6
20260509071628 20 93 0.0 0.0 0.00 0.00 0.00 99 1009.5
20260509071125 20 81 0.0 1.6 0.00 0.00 0.00 99 1009.7
20260509070623 20 102 0.0 0.0 0.00 0.00 0.00 99 1009.5
20260509070119 20 113 0.0 0.0 0.00 0.00 0.00 99 1009.7
20260509065614 20 104 0.0 0.0 0.00 0.00 0.00 99 1009.8
20260509065110 20 101 0.0 0.0 0.00 0.00 0.00 99 1009.8
20260509064608 20 111 0.0 0.0 0.00 0.00 0.00 99 1009.6
20260509064106 20 128 0.0 1.6 0.00 0.00 0.00 99 1009.5
20260509063602 20 148 1.6 3.2 0.00 0.00 0.00 98 1009.6
20260509063059 20 122 0.0 0.0 0.00 0.00 0.00 98 1010.4
20260509062556 20 108 0.0 0.0 0.00 0.00 0.00 97 1010.4
20260509062054 21 108 0.0 0.0 0.00 0.00 0.00 97 1010.8
20260509061550 21 99 0.0 0.0 0.00 0.00 0.00 96 1010.7
20260509061047 21 99 0.0 0.0 0.00 0.00 0.00 96 1010.6
20260509060545 21 99 0.0 0.0 0.00 0.00 0.00 95 1010.8
20260509060040 21 106 0.0 0.0 0.00 0.00 0.00 94 1010.8
20260509055536 21 106 0.0 0.0 0.00 0.00 0.00 94 1010.9
20260509055032 21 99 0.0 0.0 0.00 0.00 0.00 94 1011.0
20260509054529 21 98 0.0 0.0 0.00 0.00 0.00 94 1011.1
20260509054027 21 98 0.0 0.0 0.00 0.00 0.00 94 1011.1
20260509053526 21 98 0.0 0.0 0.00 0.00 0.00 94 1010.9
20260509053022 21 98 0.0 0.0 0.00 0.00 0.00 94 1011.2
20260509052520 21 98 0.0 0.0 0.00 0.00 0.00 93 1010.9
20260509052018 21 98 0.0 0.0 0.00 0.00 0.00 93 1010.8
20260509051516 21 96 0.0 0.0 0.00 0.00 0.00 93 1010.8
20260509051012 21 94 0.0 0.0 0.00 0.00 0.00 93 1010.9
20260509050509 21 97 0.0 0.0 0.00 0.00 0.00 93 1010.8
20260509050006 21 97 0.0 0.0 0.00 0.00 0.00 93 1010.7
20260509045503 21 97 0.0 0.0 0.00 0.00 0.00 93 1010.1
20260509045000 21 97 0.0 0.0 0.00 0.00 0.00 93 1010.1
20260509044457 21 97 0.0 0.0 0.00 0.00 0.00 93 1010.2
20260509043954 21 97 0.0 0.0 0.00 0.00 0.00 93 1010.2
20260509043450 21 97 0.0 0.0 0.00 0.00 0.00 93 1010.2
20260509042946 21 97 0.0 0.0 0.00 0.00 0.00 93 1010.1
20260509042443 21 96 0.0 0.0 0.00 0.00 0.00 93 1010.1
20260509041939 21 101 0.0 0.0 0.00 0.00 0.00 93 1010.0
20260509041436 21 101 0.0 0.0 0.00 0.00 0.00 93 1009.8
20260509040934 21 99 0.0 0.0 0.00 0.00 0.00 92 1009.8
20260509040432 21 99 0.0 0.0 0.00 0.00 0.00 92 1010.0
20260509035928 21 99 0.0 0.0 0.00 0.00 0.00 92 1010.0
20260509035425 21 99 0.0 0.0 0.00 0.00 0.00 92 1010.0
20260509034922 21 97 0.0 0.0 0.00 0.00 0.00 92 1010.0
20260509034420 21 116 0.0 0.0 0.00 0.00 0.00 92 1009.9
20260509033917 21 118 0.0 0.0 0.00 0.00 0.00 92 1009.8
20260509033414 21 96 0.0 0.0 0.00 0.00 0.00 92 1010.0
20260509032910 21 103 0.0 0.0 0.00 0.00 0.00 92 1009.9
20260509032408 21 103 0.0 0.0 0.00 0.00 0.00 92 1010.1
20260509031905 21 103 0.0 0.0 0.00 0.00 0.00 92 1009.7
20260509031402 21 103 0.0 0.0 0.00 0.00 0.00 92 1009.7
20260509030900 21 103 0.0 0.0 0.00 0.00 0.00 92 1009.8
20260509030358 21 98 0.0 0.0 0.00 0.00 0.00 91 1009.7
20260509025855 21 98 0.0 0.0 0.00 0.00 0.00 91 1009.8
20260509025349 21 96 0.0 0.0 0.00 0.00 0.00 91 1009.7
20260509024845 21 99 0.0 0.0 0.00 0.00 0.00 91 1009.6
20260509024342 21 99 0.0 0.0 0.00 0.00 0.00 91 1009.4
20260509023839 21 99 0.0 0.0 0.00 0.00 0.00 91 1009.4
20260509023336 21 99 0.0 0.0 0.00 0.00 0.00 91 1009.2
20260509022827 21 99 0.0 0.0 0.00 0.00 0.00 90 1009.1
20260509022325 21 99 0.0 0.0 0.00 0.00 0.00 90 1009.2
20260509021821 21 100 0.0 0.0 0.00 0.00 0.00 90 1009.0
20260509021318 21 96 0.0 0.0 0.00 0.00 0.00 90 1009.0
20260509020816 21 82 0.0 1.6 0.00 0.00 0.00 90 1008.9
20260509020314 21 98 0.0 0.0 0.00 0.00 0.00 90 1008.6
20260509015811 21 98 0.0 0.0 0.00 0.00 0.00 89 1008.8
20260509015309 21 87 0.0 0.0 0.00 0.00 0.00 89 1008.6
20260509014805 21 96 0.0 0.0 0.00 0.00 0.00 89 1008.3
20260509014303 21 93 0.0 0.0 0.00 0.00 0.00 88 1008.2
20260509013759 21 97 0.0 0.0 0.00 0.00 0.00 88 1008.0
20260509013255 21 94 0.0 0.0 0.00 0.00 0.00 88 1008.2
20260509012751 21 101 0.0 0.0 0.00 0.00 0.00 87 1008.1
20260509012248 21 101 0.0 0.0 0.00 0.00 0.00 87 1007.9
20260509011746 22 98 0.0 0.0 0.00 0.00 0.00 86 1008.0
20260509011243 22 101 0.0 0.0 0.00 0.00 0.00 86 1008.0
20260509010740 22 99 0.0 0.0 0.00 0.00 0.00 85 1007.8
20260509010237 22 99 0.0 0.0 0.00 0.00 0.00 84 1008.1
20260509005734 22 99 0.0 0.0 0.00 0.00 0.00 84 1008.1
20260509005231 22 89 0.0 0.0 0.00 0.00 0.00 83 1008.2
20260509004725 22 103 0.0 0.0 0.00 0.00 0.00 82 1008.2
20260509004224 22 107 0.0 0.0 0.00 0.00 0.00 81 1008.0
20260509003722 23 116 0.0 0.0 0.00 0.00 0.00 81 1008.1
20260509003219 23 120 0.0 0.0 0.00 0.00 0.00 81 1008.2
20260509002716 23 117 0.0 0.0 0.00 0.00 0.00 80 1008.0
20260509002214 23 129 1.6 1.6 0.00 0.00 0.00 80 1007.9
20260509001711 23 128 0.0 0.0 0.00 0.00 0.00 80 1007.9
20260509001207 23 122 0.0 1.6 0.00 0.00 0.00 80 1008.0
20260509000705 23 100 0.0 1.6 0.00 0.00 0.00 80 1008.1
20260509000204 23 124 0.0 0.0 0.00 0.00 0.00 80 1007.9
20260508235659 23 136 1.6 1.6 0.00 0.00 0.00 80 1007.7
20260508235155 23 121 0.0 0.0 0.00 0.00 0.00 79 1008.2
20260508234653 23 115 0.0 0.0 0.00 0.00 0.00 79 1008.1
20260508234149 23 114 0.0 0.0 0.00 0.00 0.00 78 1008.1
20260508233649 23 117 0.0 1.6 0.00 0.00 0.00 79 1008.4
20260508233146 23 115 0.0 0.0 0.00 0.00 0.00 78 1008.6
20260508232643 23 111 0.0 0.0 0.00 0.00 0.00 78 1008.6
20260508232139 23 112 0.0 0.0 0.00 0.00 0.00 77 1008.7
20260508231637 23 110 0.0 0.0 0.00 0.00 0.00 76 1008.8
20260508231134 24 110 0.0 0.0 0.00 0.00 0.00 77 1009.0
20260508230630 24 94 0.0 0.0 0.00 0.00 0.00 77 1009.1
20260508230127 24 104 0.0 0.0 0.00 0.00 0.00 76 1009.2
20260508225625 24 112 0.0 0.0 0.00 0.00 0.00 76 1009.1
20260508225121 24 114 0.0 0.0 0.00 0.00 0.00 75 1009.1
20260508224619 24 127 0.0 0.0 0.00 0.00 0.00 74 1009.2
20260508224116 25 112 0.0 0.0 0.00 0.00 0.00 73 1009.3
20260508223614 25 118 0.0 0.0 0.00 0.00 0.00 71 1009.1
20260508223111 24 114 0.0 0.0 0.00 0.00 0.00 73 1008.9
20260508222608 24 101 0.0 0.0 0.00 0.00 0.00 75 1008.9
20260508222105 24 112 0.0 0.0 0.00 0.00 0.00 73 1009.2
20260508221601 23 122 0.0 0.0 0.00 0.00 0.00 76 1009.1
20260508221057 24 105 0.0 1.6 0.00 0.00 0.00 76 1009.6
20260508220554 24 109 0.0 0.0 0.00 0.00 0.00 75 1009.7
20260508220050 24 110 0.0 0.0 0.00 0.00 0.00 74 1009.7
20260508215547 24 105 0.0 0.0 0.00 0.00 0.00 74 1009.5
20260508215044 24 105 0.0 0.0 0.00 0.00 0.00 73 1009.4
20260508214541 24 105 0.0 0.0 0.00 0.00 0.00 75 1009.5
20260508214037 24 105 0.0 0.0 0.00 0.00 0.00 73 1009.2
20260508213535 25 109 0.0 0.0 0.00 0.00 0.00 72 1009.4
20260508213030 25 106 0.0 0.0 0.00 0.00 0.00 70 1009.4
20260508212528 25 117 0.0 0.0 0.00 0.00 0.00 68 1009.3
20260508212024 25 103 0.0 0.0 0.00 0.00 0.00 70 1009.5
20260508211519 25 106 0.0 0.0 0.00 0.00 0.00 67 1009.3
20260508211016 26 106 1.6 1.6 0.00 0.00 0.00 66 1009.3
20260508210512 26 117 0.0 1.6 0.00 0.00 0.00 63 1009.3
20260508210010 26 101 0.0 0.0 0.00 0.00 0.00 62 1009.4
20260508205507 26 112 0.0 0.0 0.00 0.00 0.00 62 1009.1
20260508205003 26 79 1.6 1.6 0.00 0.00 0.00 63 1008.9
20260508204501 26 154 1.6 1.6 0.00 0.00 0.00 61 1008.9
20260508203956 26 97 0.0 1.6 0.00 0.00 0.00 63 1009.0
20260508203452 26 94 0.0 0.0 0.00 0.00 0.00 63 1009.2
20260508202947 26 141 1.6 1.6 0.00 0.00 0.00 63 1009.2
20260508202445 26 113 0.0 0.0 0.00 0.00 0.00 64 1009.4
20260508201942 25 101 0.0 1.6 0.00 0.00 0.00 64 1009.5
20260508201439 26 119 1.6 1.6 0.00 0.00 0.00 63 1009.9